Regional Weather Roundup
Issued by NWS

Home | Current Version | Previous Version | Text Only | Print | Product List | Glossary On
Versions: 1 2 3 4 5 6 7 8 9 10 11 12 13 14 15 16 17 18 19 20 21 22 23 24 25 26 27 28 29 30 31 32 33 34 35 36 37 38 39 40 41 42 43 44 45 46 47 48 49 50
000
ASUS43 KMKX 280221
RWRWI

WISCONSIN REGIONAL WEATHER ROUNDUP
NATIONAL WEATHER SERVICE MILWAUKEE/SULLIVAN WI
900 PM CDT FRI MAY 27 2016

NOTE: "FAIR" INDICATES FEW OR NO CLOUDS BELOW 12,000 FEET WITH NO
SIGNIFICANT WEATHER AND/OR OBSTRUCTIONS TO VISIBILITY.

WIZ001-002-006>008-014>016-023>028-280300-
NORTHWEST WISCONSIN

CITY           SKY/WX    TMP DP  RH WIND       PRES   REMARKS
SUPERIOR ARPT  RAIN      47  46  99 NE8       29.82F
ASHLAND        LGT RAIN  49  47  93 NE8       29.81F
HAYWARD        RAIN      56  54  93 N8        29.78S FOG
SIREN          CLOUDY    60  57  90 N6        29.77S
CUMBERLAND     CLOUDY    61  59  94 N8        29.75S
RICE LAKE      CLOUDY    62  60  95 CALM      29.76S
CHETEK         CLOUDY    62  62  99 CALM      29.75R
LADYSMITH      CLOUDY    67  65  93 E5        29.77R
EAU CLAIRE     CLOUDY    65  64  97 W5        29.73S
MENOMONIE      MOCLDY    64  64  99 NW3       29.74R
NEW RICHMOND   CLOUDY    64  63  94 NE3       29.75S
OSCEOLA        CLOUDY    64  64 100 N3        29.76F
$$

WIZ003>005-009-010-017-018-280300-
NORTH CENTRAL WISCONSIN

CITY           SKY/WX    TMP DP  RH WIND       PRES   REMARKS
MANITOWISH WTR NOT AVBL
ARBOR VITAE    CLOUDY    67  62  83 SE9       29.81S
WOODRUFF       CLOUDY    67  62  83 SE9       29.81S
RHINELANDER    LGT RAIN  65  62  90 SE6       29.83S
EAGLE RIVER      N/A     65  61  87 SE7       29.83R
LAND O LAKES   CLOUDY    66  62  87 SE10      29.84R
PHILLIPS       CLOUDY    66  62  88 SE12      29.77S
TOMAHAWK       CLOUDY    64  62  94 SE6       29.81S
MEDFORD        CLOUDY    65  65 100 E10G18    29.77F
MERRILL        HVY RAIN  65  65 100 E7        29.81F
$$

WIZ029-030-035-036-043>047-280300-
CENTRAL WISCONSIN

CITY           SKY/WX    TMP DP  RH WIND       PRES   REMARKS
WAUSAU         CLOUDY    66  64  93 E8        29.76F FOG
MOSINEE        CLOUDY    66  66 100 E12       29.78F FOG
MARSHFIELD     CLOUDY    69  65  86 E8        29.76S
STEVENS POINT  CLOUDY    65  65  99 E8        29.78F FOG
WAUPACA        CLOUDY    69  69  99 SE8       29.79S FOG
WAUTOMA        CLOUDY    66  66 100 VRB6      29.79R
WISC RAPIDS    MOCLDY    68  65  90 SE8       29.77F
CAMP DOUGLAS   PTCLDY    70 N/A N/A SE7       29.74F
$$

WIZ011>013-019>022-031-037>040-048>050-280300-
NORTHEAST WISCONSIN

CITY           SKY/WX    TMP DP  RH WIND       PRES   REMARKS
ANTIGO         LGT RAIN  64  64 100 SE9       29.83F
SHAWANO        LGT RAIN  68  65  92 E6        29.82F
OCONTO         CLOUDY   N/A N/A N/A E6        29.84F
STURGEON BAY   NOT AVBL
GREEN BAY      CLOUDY    67  65  93 SE9       29.83R FOG
MANITOWOC      CLOUDY    59  57  93 SE5       29.85S FOG
APPLETON       DRIZZLE   66  66 100 SE8       29.80S FOG
CLINTONVILLE   RAIN      66  64  94 SE8       29.80F
OSHKOSH        CLOUDY    67  66  97 SE8       29.80S
$$

WIZ032>034-041-042-053>061-280300-
SOUTHWEST WISCONSIN

CITY           SKY/WX    TMP DP  RH WIND       PRES   REMARKS
LA CROSSE      MOCLDY    69  67  93 CALM      29.72R
SPARTA         CLOUDY    69  68  98 CALM      29.75R
VIROQUA        MOCLDY    66  64  93 SE5       29.75R
BOSCOBEL       FOG       66  65  96 NE3       29.75R VSB 3/4
PRAIRIE DU CHI PTCLDY    68  65  91 CALM      29.73R
PLATTEVILLE    CLOUDY    71  68  90 S3        29.77R
$$

WIZ056-057-062-063-064-067-068-280300-
SOUTH CENTRAL WISCONSIN

CITY           SKY/WX    TMP DP  RH WIND       PRES   REMARKS
REEDSBURG      CLOUDY    70  68  94 SE3       29.75S
BARABOO/DELLS  MOCLDY    70  65  83 SE8       29.76F
LONE ROCK      MOCLDY    73  66  78 SE7       29.75S
MINERAL POINT  MOCLDY    72  68  88 SE5       29.77S
MADISON        MOCLDY    72  66  81 S9        29.78R
MIDDLETON      PTCLDY    72  67  84 SE7       29.77F
WATERTOWN      PTCLDY    69  69 100 SE5       29.80S
MONROE         MOCLDY    70  66  88 SE8       29.78S
JANESVILLE     PTCLDY    73  70  88 SE6       29.78F
$$

WIZ051-052-058>065-066-070>072-280300-
SOUTHEAST WISCONSIN

CITY           SKY/WX    TMP DP  RH WIND       PRES   REMARKS
MILWAUKEE      MOCLDY    69  66  90 S9        29.83S
WAUKESHA       PTCLDY    68  66  94 SE8       29.83S
MILWAUKEE/TIMM MOCLDY    70  64  83 S6        29.83S
RACINE         CLOUDY    67  63  87 S9        29.85S
BURLINGTON     CLOUDY    68  67  95 SE5       29.82F FOG
KENOSHA        MOCLDY    69  66  90 SE8       29.83S
FOND DU LAC    CLOUDY    69  67  93 SE9       29.81R
SHEBOYGAN      LGT RAIN  63  61  93 S9        29.84S FOG
WEST BEND      CLOUDY    66  64  94 SE3       29.83S
JUNEAU         CLOUDY    68  66  93 SE6       29.82S
$$

LSZ147-162-280300-
LAKE SUPERIOR

STATION/POSITION TIME  TEMP    WIND        PRES    WAVE
                       AIR SEA DIR/SP/G            HT/PER
                 (UTC) (F)     (DEG/KT/KT) (MB)    (FT/S)
W MID LAKE BUOY  0150   41 38   30/ 19/ 23 1010.2F   1/ 3
DEVILS ISLAND    0200   43      40/ 17/ 19 1010.6F
SAXON HARBOR     0100   46     200/  1/  3 1009.8
$$

LMZ867-665-643>646-280300-
LAKE MICHIGAN

STATION/POSITION TIME  TEMP    WIND        PRES    WAVE
                       AIR SEA DIR/SP/G            HT/PER
                 (UTC) (F)     (DEG/KT/KT) (MB)    (FT/S)
CHAMBERS ISLAND  0100   60      90/  6/ 11 1011.5S
N MID LAKE BUOY  0150   51 47  140/  6/  8 1012.0R   0
NORTHPORT PIER   0100   54     120/  5/  7 1011.9S
SISTER BAY       0120   57     110/  9/ 14   N/A
ALGOMA LAKESHORE 0117           70/  9/ 10   N/A
KEWAUNEE LAKESHO 0100           30/  5/  7 1010.6S
SHEBOYGAN LAKESH 0200   58     180/ 14/ 14 1010.8R
PORT WASHINGTON  0140   58      CALM  /  3 1011.2R
S MID LAKE BUOY  0150   56 50  140/ 10/ 12 1010.6F   1
KENOSHA   LAKESH 0200   62     180/ 13/ 15 1010.2S
$$

TC  - TEMPERATURE IN CELSIUS
VSB - VISIBILITY IN STATUTE MILES
WCI - WIND CHILL INDEX
HX  - HEAT INDEX





USA.gov is the U.S. government's official web portal to all federal, state and local government web resources and services.